Location: Chiroubles
(46.1812°N, 4.6660°E)
Time: 17:13:01
(UTC+00:00)

Meteor 1-4 Rocket - Pass Details

Date: 15 August 2020
Orbit: 449 x 502 km, 81.2° (Epoch: 23 September)

Event Time Altitude Azimuth Distance (km) Brightness Sun altitude
Rises 20:12:32 0° 341° (NNW) 2,471 7.1 -13.4°
Reaches altitude 10° 20:14:43 10° 333° (NNW) 1,590 6.2 -13.7°
Maximum altitude 20:17:55 36° 265° (W) 735 3.9 -14.1°
Drops below altitude 10° 20:21:05 10° 198° (SSW) 1,577 4.9 -14.5°
Enters shadow 20:21:51 - 194° (SSW) 1,877 5.3 -14.6°
